TimeEDT,TemperatureF,Dew PointF,Humidity,Sea Level PressureIn,VisibilityMPH,Wind Direction,Wind SpeedMPH,Gust SpeedMPH,PrecipitationIn,Events,Conditions,WindDirDegrees,DateUTC
12:53 AM,66.9,63.0,87,29.92,10.0,Calm,Calm,-,N/A,,Overcast,0,2013-08-28 04:53:00
1:53 AM,66.0,63.0,90,29.91,10.0,Calm,Calm,-,N/A,,Partly Cloudy,0,2013-08-28 05:53:00
2:53 AM,63.0,61.0,93,29.91,10.0,Calm,Calm,-,N/A,,Clear,0,2013-08-28 06:53:00
3:53 AM,62.1,60.1,93,29.91,10.0,Calm,Calm,-,N/A,,Clear,0,2013-08-28 07:53:00
4:53 AM,61.0,59.0,93,29.90,10.0,Calm,Calm,-,N/A,,Clear,0,2013-08-28 08:53:00
5:53 AM,60.1,57.9,93,29.91,10.0,Calm,Calm,-,N/A,,Clear,0,2013-08-28 09:53:00
6:53 AM,62.1,59.0,90,29.93,10.0,Calm,Calm,-,N/A,,Clear,0,2013-08-28 10:53:00
7:53 AM,66.9,60.1,79,29.94,10.0,Calm,Calm,-,N/A,,Clear,0,2013-08-28 11:53:00
8:53 AM,71.1,62.1,73,29.94,10.0,Calm,Calm,-,N/A,,Clear,0,2013-08-28 12:53:00
9:53 AM,75.0,62.1,64,29.94,10.0,Calm,Calm,-,N/A,,Clear,0,2013-08-28 13:53:00
10:53 AM,79.0,64.0,60,29.94,10.0,Calm,Calm,-,N/A,,Scattered Clouds,0,2013-08-28 14:53:00
11:53 AM,81.0,64.0,56,29.93,10.0,ENE,6.9,-,N/A,,Mostly Cloudy,60,2013-08-28 15:53:00
12:53 PM,81.0,63.0,54,29.91,10.0,Variable,3.5,-,N/A,,Partly Cloudy,0,2013-08-28 16:53:00
1:53 PM,82.0,63.0,52,29.91,10.0,Variable,5.8,-,N/A,,Mostly Cloudy,0,2013-08-28 17:53:00
2:53 PM,81.0,62.1,52,29.92,10.0,NNE,10.4,-,N/A,,Mostly Cloudy,20,2013-08-28 18:53:00
3:05 PM,75.2,64.4,69,29.92,10.0,North,15.0,23.0,N/A,Thunderstorm,Thunderstorm,360,2013-08-28 19:05:00
3:12 PM,75.2,64.4,69,29.93,10.0,North,11.5,23.0,N/A,Thunderstorm,Thunderstorm,360,2013-08-28 19:12:00
3:53 PM,70.0,66.9,90,29.97,5.0,NNW,8.1,-,0.08,Rain-Thunderstorm,Thunderstorms and Rain,330,2013-08-28 19:53:00
4:01 PM,69.8,66.2,88,29.95,4.0,NNW,6.9,-,0.01,Rain,Rain,340,2013-08-28 20:01:00
4:30 PM,69.8,66.2,88,29.96,3.0,North,5.8,-,0.06,Rain-Thunderstorm,Rain,350,2013-08-28 20:30:00
4:45 PM,69.8,66.2,88,29.95,3.0,NNE,6.9,-,0.11,Rain,Rain,20,2013-08-28 20:45:00
4:53 PM,69.1,66.0,90,29.97,5.0,NNE,8.1,-,0.12,Rain,Light Rain,20,2013-08-28 20:53:00
5:53 PM,69.1,66.0,90,29.99,10.0,East,3.5,-,0.00,Rain,Light Rain,90,2013-08-28 21:53:00
6:53 PM,69.1,64.9,87,30.02,10.0,Calm,Calm,-,0.00,,Mostly Cloudy,0,2013-08-28 22:53:00
7:53 PM,69.1,66.0,90,30.03,10.0,Calm,Calm,-,N/A,,Overcast,0,2013-08-28 23:53:00
8:53 PM,68.0,66.0,93,30.04,10.0,Calm,Calm,-,N/A,,Mostly Cloudy,0,2013-08-29 00:53:00
9:29 PM,69.8,64.4,83,30.04,10.0,NNW,3.5,-,N/A,,Mostly Cloudy,330,2013-08-29 01:29:00
9:36 PM,69.8,64.4,83,30.05,10.0,North,3.5,-,N/A,,Mostly Cloudy,360,2013-08-29 01:36:00
9:53 PM,68.0,64.9,90,30.06,10.0,Calm,Calm,-,0.01,Rain,Light Rain,0,2013-08-29 01:53:00
10:16 PM,68.0,64.4,88,30.05,9.0,Calm,Calm,-,0.00,Rain,Light Rain,0,2013-08-29 02:16:00
10:24 PM,68.0,64.4,88,30.04,10.0,Calm,Calm,-,0.00,Rain,Light Rain,0,2013-08-29 02:24:00
10:43 PM,66.2,64.4,94,30.05,10.0,Calm,Calm,-,0.00,,Overcast,0,2013-08-29 02:43:00
10:53 PM,66.9,64.0,90,30.06,10.0,Calm,Calm,-,0.00,,Overcast,0,2013-08-29 02:53:00
11:07 PM,66.2,62.6,88,30.05,10.0,Calm,Calm,-,N/A,,Overcast,0,2013-08-29 03:07:00
11:53 PM,66.0,63.0,90,30.07,10.0,Calm,Calm,-,0.00,Rain,Light Rain,0,2013-08-29 03:53:00